Location: Newark
(44.1667°N, 8.2500°E)
Time: 00:06:28
(UTC+00:00)

Explorer 7 - All Passes

Search period start: 09 December 2019 00:00
Search period end: 19 December 2019 00:00
Orbit: 485 x 680 km, 50.3° (Epoch: 08 December)

Date Brightness Start Highest point End Pass type
(mag) Time Alt. Az. Time Alt. Az. Time Alt. Az.
09 Dec - 14:46:32 10° SSW 14:50:39 29° SE 14:54:52 10° ENE daylight
09 Dec - 16:26:05 10° WSW 16:31:00 78° NNW 16:35:56 10° ENE visible
09 Dec - 18:07:27 10° WNW 18:12:08 41° N 18:16:44 10° ENE visible
09 Dec - 19:48:41 10° WNW 19:53:27 49° NNE 19:58:03 10° E visible
09 Dec - 21:29:29 10° WNW 21:34:16 63° SW 21:38:48 10° SE night (unlit)
09 Dec - 23:11:55 10° W 23:14:04 13° SW 23:16:11 10° SSW night (unlit)
10 Dec - 14:50:53 10° SSW 14:55:26 42° SE 15:00:05 10° ENE daylight
10 Dec - 16:31:10 10° WSW 16:36:01 61° NNW 16:40:54 10° ENE visible
10 Dec - 18:12:38 10° WNW 18:17:17 40° N 18:21:51 10° ENE visible
10 Dec - 19:53:41 10° WNW 19:58:32 59° NNE 20:03:13 10° E visible
10 Dec - 21:34:33 10° WNW 21:39:07 42° SW 21:43:26 10° SSE night (unlit)
11 Dec - 13:18:03 10° SSE 13:20:25 14° SE 13:22:49 10° E daylight
11 Dec - 14:55:31 10° SW 15:00:17 62° SE 15:05:09 10° ENE daylight
11 Dec - 16:36:20 10° W 16:41:06 50° NNW 16:45:53 10° ENE visible
11 Dec - 18:17:46 10° WNW 18:22:26 41° N 18:27:01 10° ENE visible
11 Dec - 19:58:39 10° WNW 20:03:34 76° NNE 20:08:17 10° ESE visible
11 Dec - 21:39:46 10° WNW 21:43:52 28° SW 21:47:49 10° SSE night (unlit)
12 Dec - 13:21:29 10° S 13:25:03 21° SE 13:28:43 10° E daylight
12 Dec - 15:00:22 10° WSW 15:05:12 86° SSE 15:10:09 10° ENE daylight
12 Dec - 16:41:31 10° W 16:46:12 44° N 16:50:55 10° ENE visible
12 Dec - 18:22:50 10° WNW 18:27:34 45° N 18:32:12 10° E visible
12 Dec - 20:03:37 10° WNW 20:08:32 80° SSW 20:13:15 10° SE visible
12 Dec - 21:45:15 10° W 21:48:34 19° SW 21:51:46 10° S night (unlit)
13 Dec - 13:25:34 10° SSW 13:29:46 32° SE 13:34:07 10° ENE daylight
13 Dec - 15:05:21 10° WSW 15:10:11 72° NNW 15:15:07 10° ENE daylight
13 Dec - 16:46:43 10° WNW 16:51:21 40° N 16:56:00 10° ENE visible
13 Dec - 18:27:51 10° WNW 18:32:40 52° NNE 18:37:23 10° E visible
13 Dec - 20:08:38 10° WNW 20:13:26 56° SW 20:18:02 10° SE visible
13 Dec - 21:51:34 10° WSW 21:53:11 12° SW 21:54:47 10° SSW night (unlit)
14 Dec - 13:30:02 10° SW 13:34:34 48° SE 13:39:16 10° ENE daylight
14 Dec - 15:10:27 10° W 15:15:13 57° NNW 15:20:05 10° ENE daylight
14 Dec - 16:51:52 10° WNW 16:56:31 40° N 17:01:08 10° ENE visible
14 Dec - 18:32:50 10° WNW 18:37:44 64° NNE 18:42:31 10° ESE visible
14 Dec - 20:13:44 10° WNW 20:18:15 38° SW 20:22:36 10° SSE visible
15 Dec - 11:56:47 10° SSE 11:59:31 15° SE 12:02:18 10° E daylight
15 Dec - 13:34:43 10° SW 13:39:26 69° SSE 13:44:19 10° ENE daylight
15 Dec - 15:15:37 10° W 15:20:18 47° NNW 15:25:05 10° ENE daylight
15 Dec - 16:56:58 10° WNW 17:01:39 42° N 17:06:18 10° ENE visible
15 Dec - 18:37:48 10° WNW 18:42:45 83° NNE 18:47:34 10° ESE visible
15 Dec - 20:19:00 10° W 20:23:00 25° SW 20:26:52 10° S visible
16 Dec - 12:00:28 10° S 12:04:10 24° SE 12:08:01 10° E daylight
16 Dec - 13:39:36 10° WSW 13:44:22 86° NNW 13:49:18 10° ENE daylight
16 Dec - 15:20:48 10° W 15:25:26 42° N 15:30:08 10° ENE daylight
16 Dec - 17:02:01 10° WNW 17:06:47 47° NNE 17:11:30 10° E visible
16 Dec - 18:42:46 10° WNW 18:47:41 73° SSW 18:52:29 10° SE visible
16 Dec - 20:24:37 10° W 20:27:40 17° SW 20:30:39 10° S visible
17 Dec - 12:04:40 10° SSW 12:08:54 36° SE 12:13:19 10° ENE daylight
17 Dec - 13:44:38 10° WSW 13:49:22 66° NNW 13:54:16 10° ENE daylight
17 Dec - 15:25:59 10° WNW 15:30:34 40° N 15:35:14 10° ENE daylight
17 Dec - 17:07:01 10° WNW 17:11:52 55° NNE 17:16:41 10° E visible
17 Dec - 18:47:48 10° WNW 18:52:34 50° SW 18:57:12 10° SE visible
17 Dec - 20:31:53 10° WSW 20:32:16 10° SW 20:32:38 10° SW visible
18 Dec - 10:33:07 10° SE 10:34:00 10° SE 10:34:54 10° ESE daylight
18 Dec - 12:09:13 10° SW 12:13:42 53° SE 12:18:25 10° ENE daylight
18 Dec - 13:49:46 10° W 13:54:25 53° NNW 13:59:14 10° ENE daylight
18 Dec - 15:31:08 10° WNW 15:35:44 40° N 15:40:23 10° ENE daylight
18 Dec - 17:11:59 10° WNW 17:16:55 70° NNE 17:21:47 10° ESE visible
18 Dec - 18:52:56 10° WNW 18:57:22 34° SW 19:01:41 10° SSE visible
